STARLINK-34401 (64757 NORAD) Tracking and Keplerian Element Data

This shows tracking and keplerian element data for the satellite.

Feedback or suggestion? Click here.




ElementValue
Catalog64757
NameSTARLINK-34401
Epoch Orbit2639
Epoch Day353.45995513
Epoch Year2025
RAAN255.7399
Inclination53.1607
Eccentricity0.0001197
Argument of Perigee74.6769
Mean Anonmoly285.4364
Mean Motion15.30185877
Decay Rate0.00017539
L11 64757U 25147C 25353.45995513 .00017539 00000+0 60315-3 0 9999
L22 64757 53.1607 255.7399 0001197 74.6769 285.4364 15.30185877 26397



Live tracking and technical data element details for STARLINK-34401 (NORAD 64757). STARLINK-34401 can be tracked NOW for your location showing map with azimuth and elevation plus other details from your city location.







IsCatalogInMostPopularTable: catalog: 64757, numindb: 6
Update: records affected: 1



GetName: 64757 STARLINK-34401

Hit Count: updated at: Wed, 15 Apr 2026 01:07:38 GMT